Weather History for Worthington, MN

Change the Weather History Date:

Thursday, November 22, 2012

  Actual Average Record
Temperature  
Mean Temperature 42 °F -  
Max Temperature 55 °F 35 °F 60 °F (2006)
Min Temperature 28 °F 21 °F -1 °F (1978)
Degree Days  
Heating Degree Days 24    
Moisture  
Dew Point 30 °F    
Average Humidity 59    
Maximum Humidity 71    
Minimum Humidity 47    
Precipitation  
Precipitation 0.00 in - - ()
Sea Level Pressure  
Sea Level Pressure 29.85 in    
Wind  
Wind Speed 21 mph (West)    
Max Wind Speed 36 mph    
Max Gust Speed 47 mph    
Visibility 10 miles    
Events      
Averages and records for this station are not official NWS values.
T = Trace of Precipitation, MM = Missing Value Source: NWS Daily Summary

Daily Weather History Graph

Daily Weather History Graph

Search for Another Location

Airport:

Trip Planner

Search our weather history database for the weather conditions in past years. The results will help you decide how hot, cold, wet, or windy it might be!

Date:

Astronomy

Nov. 22, 2012 Rise Set
Actual Time 7:25 AM CST 4:50 PM CST
Civil Twilight 6:54 AM CST 5:22 PM CST
Nautical Twilight 6:19 AM CST 5:57 PM CST
Astronomical Twilight 5:44 AM CST 6:31 PM CST
Moon 1:45 PM CST (11/22) 1:37 AM CST (11/22)
Length of Visible Light 10h 28m
Length of Day
9h 24m
Waxing Gibbous, 71% of the Moon is Illuminated
Nov 22
Waxing Gibbous
Nov 28
Full
Dec 6
Last Quarter
Dec 13
New
Dec 19
First Quarter

Hourly Weather History & Observations

Time (CST) Temp. Windchill Dew Point Humidity Pressure Visibility Wind Dir Wind Speed Gust Speed Precip Events Conditions
12:15 AM 55.4 °F - 39.2 °F 54% 29.69 in 10.0 mi SSW 21.9 mph 29.9 mph N/A   Clear
12:35 AM 55.4 °F - 39.2 °F 54% 29.69 in 10.0 mi SSW 23.0 mph 28.8 mph N/A   Clear
12:55 AM 55.4 °F - 39.2 °F 54% 29.68 in 10.0 mi SSW 26.5 mph 33.4 mph N/A   Clear
1:15 AM 55.4 °F - 39.2 °F 54% 29.67 in 10.0 mi SSW 23.0 mph 28.8 mph N/A   Clear
1:35 AM 55.4 °F - 39.2 °F 54% 29.67 in 10.0 mi SSW 21.9 mph 27.6 mph N/A   Clear
1:55 AM 53.6 °F - 39.2 °F 58% 29.67 in 10.0 mi SSW 23.0 mph 29.9 mph N/A   Clear
2:15 AM 53.6 °F - 39.2 °F 58% 29.67 in 10.0 mi SSW 20.7 mph - N/A   Clear
2:35 AM 53.6 °F - 39.2 °F 58% 29.66 in 10.0 mi SSW 20.7 mph 29.9 mph N/A   Clear
2:55 AM 53.6 °F - 39.2 °F 58% 29.66 in 10.0 mi SSW 20.7 mph 27.6 mph N/A   Clear
3:15 AM 51.8 °F - 39.2 °F 62% 29.66 in 10.0 mi SSW 19.6 mph - N/A   Clear
3:35 AM 51.8 °F - 39.2 °F 62% 29.65 in 10.0 mi SSW 17.3 mph 23.0 mph N/A   Clear
3:55 AM 51.8 °F - 39.2 °F 62% 29.65 in 10.0 mi SSW 17.3 mph - N/A   Clear
4:15 AM 51.8 °F - 39.2 °F 62% 29.65 in 10.0 mi SSW 16.1 mph - N/A   Clear
4:35 AM 50.0 °F - 37.4 °F 62% 29.64 in 10.0 mi SSW 19.6 mph 25.3 mph N/A   Clear
4:55 AM 50.0 °F - 37.4 °F 62% 29.65 in 10.0 mi SW 18.4 mph 24.2 mph N/A   Clear
5:15 AM 48.2 °F - 37.4 °F 66% 29.65 in 10.0 mi SW 17.3 mph - N/A   Clear
5:35 AM 48.2 °F - 37.4 °F 66% 29.66 in 10.0 mi SW 12.7 mph - N/A   Clear
5:55 AM 46.4 °F 40.1 °F 37.4 °F 71% 29.66 in 10.0 mi SW 15.0 mph - N/A   Clear
6:15 AM 46.4 °F 40.7 °F 37.4 °F 71% 29.65 in 10.0 mi SW 12.7 mph - N/A   Clear
6:35 AM 46.4 °F 41.5 °F 35.6 °F 66% 29.66 in 10.0 mi SW 10.4 mph - N/A   Clear
6:55 AM 44.6 °F 38.8 °F 35.6 °F 71% 29.66 in 10.0 mi WSW 11.5 mph - N/A   Clear
7:15 AM 46.4 °F 41.1 °F 35.6 °F 66% 29.67 in 10.0 mi WSW 11.5 mph - N/A   Clear
7:35 AM 44.6 °F 39.7 °F 33.8 °F 66% 29.68 in 10.0 mi WSW 9.2 mph - N/A   Clear
7:55 AM 42.8 °F 37.0 °F 33.8 °F 70% 29.69 in 10.0 mi West 10.4 mph - N/A   Clear
8:15 AM 42.8 °F 38.0 °F 33.8 °F 70% 29.69 in 10.0 mi West 8.1 mph - N/A   Clear
8:35 AM 44.6 °F 39.7 °F 33.8 °F 66% 29.70 in 10.0 mi WSW 9.2 mph - N/A   Clear
8:55 AM 46.4 °F 43.5 °F 33.8 °F 62% 29.70 in 10.0 mi West 5.8 mph - N/A   Clear
9:15 AM 48.2 °F - 33.8 °F 58% 29.73 in 10.0 mi NW 13.8 mph - N/A   Clear
9:35 AM 51.8 °F - 32.0 °F 47% 29.73 in 10.0 mi NW 18.4 mph 26.5 mph N/A   Clear
9:55 AM 51.8 °F - 33.8 °F 50% 29.73 in 10.0 mi NNW 18.4 mph - N/A   Clear
10:15 AM 50.0 °F - 33.8 °F 54% 29.76 in 10.0 mi NW 16.1 mph - N/A   Clear
10:35 AM 51.8 °F - 33.8 °F 50% 29.76 in 10.0 mi NW 19.6 mph - N/A   Clear
10:55 AM 51.8 °F - 33.8 °F 50% 29.77 in 10.0 mi WNW 21.9 mph - N/A   Clear
11:15 AM 51.8 °F - 33.8 °F 50% 29.79 in 10.0 mi NW 19.6 mph 25.3 mph N/A   Clear
11:35 AM 50.0 °F - 33.8 °F 54% 29.80 in 10.0 mi NNW 25.3 mph - N/A   Clear
11:55 AM 48.2 °F - 33.8 °F 58% 29.81 in 10.0 mi NW 23.0 mph 28.8 mph N/A   Clear
12:15 PM 46.4 °F 37.9 °F 32.0 °F 57% 29.83 in 10.0 mi WNW 25.3 mph 28.8 mph N/A   Scattered Clouds
12:35 PM 44.6 °F 34.7 °F 30.2 °F 57% 29.85 in 10.0 mi WNW 29.9 mph 36.8 mph N/A   Overcast
12:55 PM 42.8 °F 32.9 °F 30.2 °F 61% 29.86 in 10.0 mi WNW 26.5 mph 35.7 mph N/A   Overcast
1:15 PM 44.6 °F 35.3 °F 30.2 °F 57% 29.86 in 10.0 mi NW 26.5 mph 39.1 mph N/A   Overcast
1:35 PM 42.8 °F 32.7 °F 28.4 °F 57% 29.87 in 10.0 mi NW 27.6 mph 34.5 mph N/A   Overcast
1:55 PM 42.8 °F 32.5 °F 28.4 °F 57% 29.89 in 10.0 mi WNW 28.8 mph - N/A   Overcast
2:15 PM - - - N/A% 29.90 in 10.0 mi NW 27.6 mph 35.7 mph N/A   Overcast
2:35 PM 39.2 °F 28.5 °F 28.4 °F 65% 29.92 in 10.0 mi NW 24.2 mph 38.0 mph N/A   Overcast
2:55 PM 39.2 °F 29.0 °F 28.4 °F 65% 29.93 in 10.0 mi NW 21.9 mph 28.8 mph N/A   Overcast
3:15 PM 39.2 °F 28.7 °F 28.4 °F 65% 29.95 in 10.0 mi WNW 23.0 mph 36.8 mph N/A   Overcast
3:35 PM 39.2 °F 29.0 °F 28.4 °F 65% 29.95 in 10.0 mi WNW 21.9 mph 26.5 mph N/A   Overcast
3:55 PM 39.2 °F 29.0 °F 28.4 °F 65% 29.97 in 10.0 mi WNW 21.9 mph 29.9 mph N/A   Overcast
4:15 PM 39.2 °F 28.3 °F 28.4 °F 65% 29.98 in 10.0 mi WNW 25.3 mph 34.5 mph N/A   Overcast
4:35 PM 39.2 °F 28.7 °F 28.4 °F 65% 29.99 in 10.0 mi WNW 23.0 mph 27.6 mph N/A   Overcast
4:55 PM 39.2 °F 28.3 °F 28.4 °F 65% 30.00 in 10.0 mi NW 25.3 mph 35.7 mph N/A   Overcast
5:15 PM 39.2 °F 29.3 °F 26.6 °F 61% 30.01 in 10.0 mi NW 20.7 mph 26.5 mph N/A   Overcast
5:35 PM 39.2 °F 29.8 °F 28.4 °F 65% 30.01 in 10.0 mi WNW 18.4 mph 23.0 mph N/A   Overcast
5:55 PM 39.2 °F 27.8 °F 24.8 °F 56% 30.02 in 10.0 mi WNW 27.6 mph 40.3 mph N/A   Overcast
6:15 PM 37.4 °F 25.0 °F 24.8 °F 60% 30.03 in 10.0 mi WNW 29.9 mph 38.0 mph N/A   Overcast
6:35 PM 37.4 °F 25.4 °F 24.8 °F 60% 30.05 in 10.0 mi NW 27.6 mph 35.7 mph N/A   Overcast
6:55 PM 37.4 °F 24.2 °F 21.2 °F 52% 30.06 in 10.0 mi WNW 34.5 mph 47.2 mph N/A   Overcast
7:15 PM 37.4 °F 24.8 °F 21.2 °F 52% 30.07 in 10.0 mi WNW 31.1 mph 40.3 mph N/A   Overcast
7:35 PM 35.6 °F 22.5 °F 19.4 °F 52% 30.08 in 10.0 mi NW 29.9 mph 36.8 mph N/A   Overcast
7:55 PM 33.8 °F 19.0 °F 17.6 °F 52% 30.08 in 10.0 mi WNW 35.7 mph 44.9 mph N/A   Mostly Cloudy
8:15 PM 32.0 °F 18.1 °F 15.8 °F 51% 30.08 in 10.0 mi WNW 27.6 mph 38.0 mph N/A   Partly Cloudy
8:35 PM 30.2 °F 17.1 °F 15.8 °F 55% 30.08 in 10.0 mi NW 21.9 mph 33.4 mph N/A   Clear
8:55 PM 30.2 °F 18.1 °F 15.8 °F 55% 30.08 in 10.0 mi WNW 18.4 mph 23.0 mph N/A   Clear
9:15 PM 28.4 °F 17.0 °F 15.8 °F 59% 30.09 in 10.0 mi WNW 15.0 mph - N/A   Scattered Clouds
9:35 PM 30.2 °F 18.1 °F 15.8 °F 55% 30.09 in 10.0 mi WNW 18.4 mph 25.3 mph N/A   Mostly Cloudy
9:55 PM 30.2 °F 16.5 °F 15.8 °F 55% 30.09 in 10.0 mi WNW 24.2 mph 31.1 mph N/A   Overcast
10:15 PM 28.4 °F 13.5 °F 15.8 °F 59% 30.10 in 10.0 mi WNW 26.5 mph 32.2 mph N/A   Scattered Clouds
10:35 PM 28.4 °F 13.0 °F 15.8 °F 59% 30.12 in 10.0 mi WNW 28.8 mph 35.7 mph N/A   Mostly Cloudy
10:55 PM 28.4 °F 14.1 °F 15.8 °F 59% 30.13 in 10.0 mi WNW 24.2 mph 32.2 mph N/A   Overcast
11:15 PM 28.4 °F 14.7 °F 15.8 °F 59% 30.14 in 10.0 mi WNW 21.9 mph 29.9 mph N/A   Overcast
11:35 PM 28.4 °F 12.5 °F 15.8 °F 59% 30.14 in 10.0 mi WNW 31.1 mph 36.8 mph N/A   Overcast
11:55 PM - - - N/A% 30.14 in 10.0 mi NW 32.2 mph 38.0 mph N/A   Overcast